When you browse on this site, cookies collect data to enhance your experience and personalize the content and advertising you see.
Visit our Privacy Policy to learn more. By continuing to use the site, you agree to this use of cookies and data.

Hourly Weather Preston

Today, 3 July, Friday

Time Temperature Precipitation Wind Pressure Humidity
00:00 +11°C° 0 mm 3 mps 757 mmHg 89%
01:00 +11°C° 0 mm 3 mps 757 mmHg 88%
02:00 +12°C° 0 mm 3 mps 756 mmHg 88%
03:00 +12°C° 0 mm 3 mps 756 mmHg 88%
04:00 +12°C° 0.3 mm 4 mps 756 mmHg 88%
05:00 +12°C° 0.3 mm 5 mps 756 mmHg 88%
06:00 +13°C° 0.3 mm 6 mps 755 mmHg 89%
07:00 +13°C° 0.5 mm 6 mps 755 mmHg 89%
08:00 +12°C° 0.5 mm 7 mps 755 mmHg 90%
09:00 +12°C° 0.5 mm 7 mps 754 mmHg 90%
10:00 +12°C° 0.1 mm 8 mps 754 mmHg 90%
11:00 +13°C° 0.1 mm 8 mps 754 mmHg 89%
12:00 +15°C° 0.1 mm 9 mps 753 mmHg 89%
13:00 +15°C° 0.2 mm 9 mps 753 mmHg 89%
14:00 +15°C° 0.2 mm 9 mps 753 mmHg 90%
15:00 +15°C° 0.2 mm 9 mps 753 mmHg 90%
16:00 +15°C° 0.4 mm 9 mps 753 mmHg 91%
17:00 +15°C° 0.4 mm 8 mps 753 mmHg 92%
18:00 +15°C° 0.4 mm 8 mps 753 mmHg 93%
19:00 +15°C° 0.1 mm 7 mps 753 mmHg 94%
20:00 +15°C° 0.1 mm 6 mps 754 mmHg 94%
21:00 +15°C° 0.1 mm 5 mps 754 mmHg 95%
22:00 +15°C° 0.1 mm 5 mps 754 mmHg 95%
23:00 +15°C° 0.1 mm 4 mps 753 mmHg 95%

Tomorrow, 4 July, Saturday

Time Temperature Precipitation Wind Pressure Humidity
00:00 +15°C° 0.1 mm 4 mps 753 mmHg 96%
01:00 +15°C° 0.2 mm 4 mps 753 mmHg 96%
02:00 +15°C° 0.2 mm 4 mps 753 mmHg 96%
03:00 +16°C° 0.2 mm 3 mps 752 mmHg 96%
04:00 +15°C° 0.4 mm 4 mps 752 mmHg 95%
05:00 +15°C° 0.4 mm 4 mps 751 mmHg 95%
06:00 +17°C° 0.4 mm 4 mps 751 mmHg 95%
07:00 +16°C° 0.1 mm 5 mps 751 mmHg 94%
08:00 +16°C° 0.1 mm 5 mps 750 mmHg 93%
09:00 +17°C° 0.1 mm 6 mps 750 mmHg 92%
10:00 +17°C° 0.2 mm 6 mps 750 mmHg 92%
11:00 +17°C° 0.2 mm 7 mps 750 mmHg 92%
12:00 +16°C° 0.2 mm 8 mps 750 mmHg 92%
13:00 +16°C° 0.2 mm 8 mps 751 mmHg 92%
14:00 +16°C° 0.2 mm 8 mps 751 mmHg 91%
15:00 +16°C° 0.2 mm 8 mps 751 mmHg 90%
16:00 +16°C° 0.1 mm 8 mps 751 mmHg 89%
17:00 +16°C° 0.1 mm 8 mps 751 mmHg 88%
18:00 +16°C° 0.1 mm 8 mps 752 mmHg 87%
19:00 +16°C° 0.1 mm 7 mps 752 mmHg 89%
20:00 +15°C° 0.1 mm 6 mps 752 mmHg 91%
21:00 +15°C° 0.1 mm 5 mps 752 mmHg 93%
22:00 +15°C° 0.1 mm 5 mps 752 mmHg 93%
23:00 +15°C° 0.1 mm 4 mps 752 mmHg 93%

Day after tomorrow, 5 July, Sunday

Time Temperature Precipitation Wind Pressure Humidity
00:00 +15°C° 0.1 mm 4 mps 751 mmHg 92%
01:00 +15°C° 0.4 mm 5 mps 750 mmHg 92%
02:00 +15°C° 0.4 mm 6 mps 749 mmHg 92%
03:00 +15°C° 0.4 mm 8 mps 748 mmHg 92%
04:00 +16°C° 0.3 mm 9 mps 748 mmHg 90%
05:00 +16°C° 0.3 mm 11 mps 747 mmHg 89%
06:00 +15°C° 0.3 mm 12 mps 746 mmHg 87%
07:00 +15°C° 0.3 mm 12 mps 747 mmHg 83%
08:00 +14°C° 0.3 mm 13 mps 748 mmHg 79%
09:00 +13°C° 0.3 mm 13 mps 749 mmHg 74%
10:00 +13°C° 0.1 mm 12 mps 749 mmHg 72%
11:00 +14°C° 0.1 mm 12 mps 750 mmHg 70%
12:00 +14°C° 0.1 mm 11 mps 750 mmHg 68%
13:00 +14°C° 0.1 mm 11 mps 751 mmHg 68%
14:00 +14°C° 0.1 mm 11 mps 751 mmHg 67%
15:00 +14°C° 0.1 mm 11 mps 751 mmHg 67%
16:00 +14°C° 0.2 mm 10 mps 751 mmHg 70%
17:00 +13°C° 0.2 mm 10 mps 751 mmHg 72%
18:00 +13°C° 0.2 mm 10 mps 751 mmHg 75%
19:00 +12°C° 0.5 mm 10 mps 752 mmHg 77%
20:00 +12°C° 0.5 mm 10 mps 752 mmHg 78%
21:00 +11°C° 0.5 mm 10 mps 752 mmHg 80%
22:00 +11°C° 0.5 mm 10 mps 752 mmHg 82%
23:00 +11°C° 0.5 mm 10 mps 752 mmHg 83%

6 July, Monday

Time Temperature Precipitation Wind Pressure Humidity
00:00 +11°C° 0.5 mm 10 mps 752 mmHg 85%
01:00 +9°C° 0.4 mm 10 mps 752 mmHg 84%
02:00 +9°C° 0.4 mm 10 mps 753 mmHg 84%
03:00 +9°C° 0.4 mm 10 mps 753 mmHg 83%
04:00 +9°C° 0.2 mm 10 mps 754 mmHg 84%
05:00 +11°C° 0.2 mm 10 mps 755 mmHg 84%
06:00 +11°C° 0.2 mm 11 mps 755 mmHg 85%
07:00 +12°C° 0.1 mm 10 mps 757 mmHg 81%
08:00 +13°C° 0.1 mm 9 mps 758 mmHg 78%
09:00 +13°C° 0.1 mm 9 mps 759 mmHg 75%
10:00 +15°C° 0.1 mm 8 mps 760 mmHg 72%
11:00 +15°C° 0.1 mm 8 mps 760 mmHg 69%
12:00 +16°C° 0.1 mm 8 mps 761 mmHg 66%
13:00 +15°C° 0 mm 8 mps 762 mmHg 66%
14:00 +15°C° 0 mm 8 mps 762 mmHg 66%
15:00 +15°C° 0 mm 8 mps 763 mmHg 66%
16:00 +15°C° 0 mm 8 mps 763 mmHg 67%
17:00 +13°C° 0 mm 8 mps 764 mmHg 69%
18:00 +14°C° 0 mm 7 mps 764 mmHg 70%
19:00 +12°C° 0 mm 7 mps 765 mmHg 73%
20:00 +11°C° 0 mm 6 mps 765 mmHg 75%
21:00 +10°C° 0 mm 5 mps 765 mmHg 77%
22:00 +10°C° 0 mm 5 mps 765 mmHg 79%
23:00 +10°C° 0 mm 4 mps 766 mmHg 81%

7 July, Tuesday

Time Temperature Precipitation Wind Pressure Humidity
00:00 +10°C° 0 mm 4 mps 766 mmHg 82%
01:00 +10°C° 0 mm 4 mps 766 mmHg 83%
02:00 +10°C° 0 mm 4 mps 765 mmHg 85%
03:00 +10°C° 0 mm 3 mps 765 mmHg 86%
04:00 +11°C° 0 mm 4 mps 765 mmHg 86%
05:00 +11°C° 0 mm 4 mps 765 mmHg 85%
06:00 +12°C° 0 mm 5 mps 766 mmHg 85%
07:00 +13°C° 0 mm 5 mps 766 mmHg 81%
08:00 +14°C° 0 mm 5 mps 766 mmHg 78%
09:00 +14°C° 0 mm 5 mps 766 mmHg 74%
10:00 +15°C° 0 mm 5 mps 765 mmHg 72%
11:00 +15°C° 0 mm 5 mps 765 mmHg 70%
12:00 +17°C° 0 mm 4 mps 765 mmHg 68%
13:00 +17°C° 0 mm 4 mps 765 mmHg 67%
14:00 +17°C° 0 mm 4 mps 765 mmHg 66%
15:00 +17°C° 0 mm 4 mps 765 mmHg 65%
16:00 +17°C° 0 mm 4 mps 765 mmHg 67%
17:00 +16°C° 0 mm 3 mps 764 mmHg 68%
18:00 +16°C° 0 mm 3 mps 764 mmHg 70%
19:00 +14°C° 0 mm 2 mps 764 mmHg 73%
20:00 +13°C° 0 mm 1 mps 764 mmHg 76%
21:00 +12°C° 0 mm 1 mps 764 mmHg 79%
22:00 +12°C° 0 mm 1 mps 764 mmHg 79%
23:00 +12°C° 0 mm 1 mps 764 mmHg 78%

8 July, Wednesday

Time Temperature Precipitation Wind Pressure Humidity
00:00 +12°C° 0 mm 1 mps 764 mmHg 78%
01:00 +12°C° 0 mm 2 mps 763 mmHg 78%
02:00 +12°C° 0 mm 2 mps 763 mmHg 77%
03:00 +12°C° 0 mm 2 mps 763 mmHg 77%
04:00 +13°C° 0 mm 2 mps 763 mmHg 78%
05:00 +12°C° 0 mm 3 mps 762 mmHg 78%
06:00 +12°C° 0 mm 3 mps 762 mmHg 79%
07:00 +13°C° 0 mm 3 mps 762 mmHg 75%
08:00 +14°C° 0 mm 4 mps 761 mmHg 72%
09:00 +15°C° 0 mm 4 mps 761 mmHg 68%
10:00 +16°C° 0.1 mm 5 mps 761 mmHg 69%
11:00 +16°C° 0.1 mm 5 mps 761 mmHg 70%
12:00 +16°C° 0.1 mm 5 mps 761 mmHg 70%
13:00 +16°C° 0.5 mm 5 mps 760 mmHg 72%
14:00 +16°C° 0.5 mm 5 mps 760 mmHg 75%
15:00 +16°C° 0.5 mm 5 mps 760 mmHg 77%
16:00 +15°C° 0.2 mm 5 mps 759 mmHg 80%
17:00 +15°C° 0.2 mm 5 mps 759 mmHg 84%
18:00 +14°C° 0.2 mm 5 mps 759 mmHg 87%
19:00 +14°C° 0 mm 5 mps 759 mmHg 88%
20:00 +14°C° 0 mm 5 mps 759 mmHg 89%
21:00 +14°C° 0 mm 4 mps 759 mmHg 90%
22:00 +14°C° 0.1 mm 5 mps 759 mmHg 90%
23:00 +13°C° 0.1 mm 5 mps 759 mmHg 89%
Show more